NOAA 21 (JPSS-2)

Last updated on Sat Sep 12 2026 00:02:41 GMT+0000 (Coordinated Universal Time)

1 54234U 22150A 26254.58954999 .00000025 00000+0 32407-4 0 9991 2 54234 98.7093 191.9360 0001260 349.2812 10.8337 14.19548805198806
UTC large
Height (km)
Speed (km/s)
/
Latitude / Longitude
Inclination (degrees)
Orbital Period (minutes)
Azimuth
Elevation
Range (km)
Doppler Factor

Next 0 passes for location: London (51.5072 / 0.1276)

No passes found over London.
NOAA 21 (JPSS-2)